| time (UTC) | temp F | wind direction | speed knots | gust knots | rain 1hr in | rain 24hr in | rain mn in | humidity % | barometer mb |
| 20260504130411 | 44 | 269 | 0.9 | 1.7 | 0.00 | 0.00 | 0.00 | 58 | |
| 20260504100411 | 45 | 26 | 3.5 | 6.1 | 0.00 | 0.00 | 0.00 | 53 | |
| 20260504081730 | 48 | 11 | 6.1 | 8.7 | 0.00 | 0.00 | 0.00 | 40 | |
| 20260504081050 | 48 | 14 | 5.2 | 10.4 | 0.00 | 0.00 | 0.00 | 40 | |
| 20260504070412 | 49 | 351 | 7.8 | 12.2 | 0.00 | 0.00 | 0.00 | 36 | |
| 20260504045051 | 54 | 4 | 4.3 | 7.0 | 0.00 | 0.00 | 0.00 | 34 | |
| 20260504044411 | 54 | 28 | 3.5 | 6.1 | 0.00 | 0.00 | 0.00 | 34 | |
| 20260504043731 | 55 | 30 | 3.5 | 8.7 | 0.00 | 0.00 | 0.00 | 33 | |
| 20260504043051 | 56 | 48 | 4.3 | 9.6 | 0.00 | 0.00 | 0.00 | 32 | |
| 20260504042411 | 57 | 38 | 6.1 | 11.3 | 0.00 | 0.00 | 0.00 | 31 | |
| 20260504041731 | 58 | 45 | 5.2 | 13.0 | 0.00 | 0.00 | 0.00 | 30 | |
| 20260504041051 | 58 | 46 | 6.1 | 15.6 | 0.00 | 0.00 | 0.00 | 29 | |
| 20260504035732 | 60 | 27 | 11.3 | 17.4 | 0.00 | 0.00 | 0.00 | 26 | |
| 20260504035051 | 59 | 347 | 7.0 | 10.4 | 0.00 | 0.00 | 0.00 | 28 | |
| 20260504034413 | 56 | 329 | 5.2 | 10.4 | 0.00 | 0.00 | 0.00 | 34 | |
| 20260504033731 | 56 | 228 | 4.3 | 6.1 | 0.00 | 0.00 | 0.00 | 38 | |
| 20260504033051 | 57 | 230 | 4.3 | 7.0 | 0.00 | 0.00 | 0.00 | 36 | |
| 20260504032412 | 58 | 233 | 4.3 | 7.0 | 0.00 | 0.00 | 0.00 | 34 | |
| 20260504031051 | 60 | 236 | 3.5 | 6.1 | 0.00 | 0.00 | 0.00 | 30 | |
| 20260504025052 | 62 | 242 | 2.6 | 6.1 | 0.00 | 0.00 | 0.00 | 28 | |
| 20260504024412 | 62 | 249 | 3.5 | 6.1 | 0.00 | 0.00 | 0.00 | 26 | |
| 20260504023731 | 63 | 242 | 4.3 | 7.0 | 0.00 | 0.00 | 0.00 | 25 | |
| 20260504022411 | 65 | 251 | 3.5 | 7.0 | 0.00 | 0.00 | 0.00 | 23 | |
| 20260504021731 | 65 | 245 | 3.5 | 7.0 | 0.00 | 0.00 | 0.00 | 23 | |
| 20260504021051 | 66 | 257 | 4.3 | 7.0 | 0.00 | 0.00 | 0.00 | 22 | |
| 20260504020412 | 67 | 259 | 3.5 | 9.6 | 0.00 | 0.00 | 0.00 | 21 | |
| 20260504015052 | 68 | 255 | 4.3 | 10.4 | 0.00 | 0.00 | 0.00 | 20 | |
| 20260504014411 | 68 | 253 | 4.3 | 9.6 | 0.00 | 0.00 | 0.00 | 19 | |
| 20260504013731 | 69 | 250 | 4.3 | 11.3 | 0.00 | 0.00 | 0.00 | 18 | |
| 20260504013052 | 69 | 241 | 7.0 | 12.2 | 0.00 | 0.00 | 0.00 | 19 | |
| 20260504012411 | 70 | 248 | 6.1 | 11.3 | 0.00 | 0.00 | 0.00 | 17 | |
| 20260504011732 | 70 | 258 | 5.2 | 10.4 | 0.00 | 0.00 | 0.00 | 16 | |
| 20260504011051 | 71 | 250 | 6.1 | 13.0 | 0.00 | 0.00 | 0.00 | 17 | |
| 20260504010411 | 71 | 263 | 4.3 | 14.8 | 0.00 | 0.00 | 0.00 | 16 | |
| 20260504005731 | 71 | 254 | 6.1 | 14.8 | 0.00 | 0.00 | 0.00 | 16 | |
| 20260504004411 | 72 | 250 | 6.1 | 14.8 | 0.00 | 0.00 | 0.00 | 15 | |
| 20260504003731 | 72 | 253 | 7.0 | 13.9 | 0.00 | 0.00 | 0.00 | 15 | |
| 20260504003052 | 73 | 269 | 7.0 | 13.9 | 0.00 | 0.00 | 0.00 | 14 | |
| 20260504002412 | 72 | 263 | 6.1 | 13.9 | 0.00 | 0.00 | 0.00 | 14 | |
| 20260504001732 | 72 | 290 | 5.2 | 12.2 | 0.00 | 0.00 | 0.00 | 14 | |
| 20260504001051 | 74 | 294 | 4.3 | 12.2 | 0.00 | 0.00 | 0.00 | 12 | |
| 20260504000411 | 73 | 293 | 5.2 | 10.4 | 0.00 | 0.00 | 0.00 | 12 | |
| 20260503235733 | 73 | 251 | 4.3 | 14.8 | 0.00 | 0.00 | 0.00 | 14 | |
| 20260503234411 | 72 | 306 | 6.1 | 12.2 | 0.00 | 0.00 | 0.00 | 12 | |
| 20260503233731 | 73 | 282 | 5.2 | 11.3 | 0.00 | 0.00 | 0.00 | 11 | |
| 20260503233052 | 73 | 262 | 6.1 | 12.2 | 0.00 | 0.00 | 0.00 | 12 | |
| 20260503232411 | 73 | 250 | 4.3 | 12.2 | 0.00 | 0.00 | 0.00 | 12 | |
| 20260503231731 | 74 | 278 | 5.2 | 10.4 | 0.00 | 0.00 | 0.00 | 12 | |
| 20260503231051 | 73 | 251 | 5.2 | 12.2 | 0.00 | 0.00 | 0.00 | 12 | |
| 20260503230411 | 73 | 261 | 5.2 | 12.2 | 0.00 | 0.00 | 0.00 | 11 | |
| 20260503225732 | 73 | 276 | 6.1 | 11.3 | 0.00 | 0.00 | 0.00 | 12 | |
| 20260503224411 | 74 | 286 | 5.2 | 12.2 | 0.00 | 0.00 | 0.00 | 11 | |
| 20260503223731 | 74 | 283 | 6.1 | 14.8 | 0.00 | 0.00 | 0.00 | 10 | |
| 20260503222411 | 74 | 303 | 6.1 | 13.9 | 0.00 | 0.00 | 0.00 | 11 | |
| 20260503221731 | 74 | 263 | 5.2 | 15.6 | 0.00 | 0.00 | 0.00 | 11 | |
| 20260503221051 | 73 | 253 | 6.1 | 15.6 | 0.00 | 0.00 | 0.00 | 11 | |
| 20260503220411 | 73 | 253 | 7.8 | 15.6 | 0.00 | 0.00 | 0.00 | 11 | |
| 20260503215731 | 74 | 260 | 4.3 | 11.3 | 0.00 | 0.00 | 0.00 | 11 | |
| 20260503215051 | 73 | 314 | 5.2 | 11.3 | 0.00 | 0.00 | 0.00 | 10 | |
| 20260503213732 | 72 | 237 | 8.7 | 13.0 | 0.00 | 0.00 | 0.00 | 11 | |
| 20260503213051 | 73 | 241 | 7.8 | 12.2 | 0.00 | 0.00 | 0.00 | 11 | |
| 20260503212412 | 72 | 230 | 5.2 | 12.2 | 0.00 | 0.00 | 0.00 | 11 | |
| 20260503211731 | 72 | 238 | 6.1 | 11.3 | 0.00 | 0.00 | 0.00 | 12 | |
| 20260503211051 | 72 | 268 | 5.2 | 13.9 | 0.00 | 0.00 | 0.00 | 11 | |
| 20260503210411 | 72 | 251 | 4.3 | 12.2 | 0.00 | 0.00 | 0.00 | 12 | |
| 20260503205732 | 72 | 284 | 4.3 | 12.2 | 0.00 | 0.00 | 0.00 | 12 | |
| 20260503205051 | 72 | 251 | 3.5 | 13.9 | 0.00 | 0.00 | 0.00 | 11 | |
| 20260503204412 | 71 | 269 | 5.2 | 13.9 | 0.00 | 0.00 | 0.00 | 11 | |
| 20260503203733 | 71 | 267 | 5.2 | 12.2 | 0.00 | 0.00 | 0.00 | 13 | |
| 20260503203051 | 71 | 314 | 4.3 | 13.0 | 0.00 | 0.00 | 0.00 | 11 | |
| 20260503202411 | 71 | 275 | 6.1 | 13.9 | 0.00 | 0.00 | 0.00 | 12 | |
| 20260503201732 | 72 | 269 | 5.2 | 10.4 | 0.00 | 0.00 | 0.00 | 12 | |
| 20260503201051 | 71 | 306 | 3.5 | 12.2 | 0.00 | 0.00 | 0.00 | 11 | |
| 20260503200412 | 71 | 269 | 5.2 | 10.4 | 0.00 | 0.00 | 0.00 | 13 | |
| 20260503195731 | 72 | 275 | 3.5 | 9.6 | 0.00 | 0.00 | 0.00 | 13 | |
| 20260503195052 | 70 | 301 | 3.5 | 7.8 | 0.00 | 0.00 | 0.00 | 15 | |
| 20260503194411 | 70 | 255 | 3.5 | 11.3 | 0.00 | 0.00 | 0.00 | 16 | |
| 20260503193731 | 70 | 326 | 7.0 | 14.8 | 0.00 | 0.00 | 0.00 | 14 | |
| 20260503193051 | 71 | 329 | 9.6 | 13.9 | 0.00 | 0.00 | 0.00 | 15 | |
| 20260503191731 | 71 | 233 | 4.3 | 7.8 | 0.00 | 0.00 | 0.00 | 17 | |
| 20260503191051 | 70 | 302 | 3.5 | 11.3 | 0.00 | 0.00 | 0.00 | 15 | |
| 20260503190413 | 70 | 271 | 5.2 | 11.3 | 0.00 | 0.00 | 0.00 | 16 | |
| 20260503185731 | 69 | 345 | 1.7 | 11.3 | 0.00 | 0.00 | 0.00 | 16 | |
| 20260503185051 | 70 | 340 | 6.1 | 11.3 | 0.00 | 0.00 | 0.00 | 16 | |
| 20260503184411 | 70 | 318 | 0.9 | 8.7 | 0.00 | 0.00 | 0.00 | 15 | |
| 20260503183732 | 68 | 324 | 6.1 | 14.8 | 0.00 | 0.00 | 0.00 | 17 | |
| 20260503183051 | 69 | 321 | 6.1 | 12.2 | 0.00 | 0.00 | 0.00 | 16 | |
| 20260503182412 | 68 | 354 | 5.2 | 12.2 | 0.00 | 0.00 | 0.00 | 16 | |
| 20260503181732 | 69 | 312 | 4.3 | 8.7 | 0.00 | 0.00 | 0.00 | 17 | |
| 20260503181051 | 68 | 309 | 5.2 | 8.7 | 0.00 | 0.00 | 0.00 | 16 | |
| 20260503180411 | 67 | 309 | 3.5 | 12.2 | 0.00 | 0.00 | 0.00 | 17 | |
| 20260503175731 | 67 | 324 | 9.6 | 12.2 | 0.00 | 0.00 | 0.00 | 18 | |
| 20260503175051 | 67 | 328 | 6.1 | 12.2 | 0.00 | 0.00 | 0.00 | 18 | |
| 20260503174411 | 67 | 348 | 7.0 | 13.9 | 0.00 | 0.00 | 0.00 | 17 | |
| 20260503173051 | 66 | 315 | 8.7 | 13.9 | 0.00 | 0.00 | 0.00 | 18 | |
| 20260503172411 | 66 | 328 | 4.3 | 11.3 | 0.00 | 0.00 | 0.00 | 18 | |
| 20260503171731 | 66 | 333 | 4.3 | 14.8 | 0.00 | 0.00 | 0.00 | 19 | |
| 20260503171052 | 65 | 349 | 7.8 | 13.9 | 0.00 | 0.00 | 0.00 | 21 | |
| 20260503170412 | 65 | 296 | 5.2 | 13.0 | 0.00 | 0.00 | 0.00 | 20 | |
| 20260503150411 | 56 | 282 | 1.7 | 5.2 | 0.00 | 0.00 | 0.00 | 48 |